Location: Cahas Mountain Overlook
(37.0833°N, 80.1000°W)
Time: 06:29:07
(UTC-05:00)

Vanguard 2 Rocket - Pass Details

Date: 15 February 2026
Orbit: 553 x 3287 km, 32.9° (Epoch: 5 March)

Event Time Altitude Azimuth Distance (km) Brightness Sun altitude
Rises 18:16:20 0° 278° (W) 5,642 12.5 -3.9°
Reaches altitude 10° 18:20:55 10° 273° (W) 4,165 11.9 -4.8°
Maximum altitude 18:30:18 43° 207° (SSW) 1,604 8.5 -6.6°
Drops below altitude 10° 18:35:54 10° 136° (SE) 2,494 8.8 -7.7°
Sets 18:38:00 0° 129° (SE) 3,217 9.3 -8.1°
